Tracking 29892 objects as of 21-Nov-2024
HD Live streaming from Space Station
objects crossing your sky now

OV2-1

Track OV2-1 now!
10-day predictions
OV2-1 is classified as:


NORAD ID: 1641
Int'l Code: 1965-082C
Perigee: 705.6 km
Apogee: 732.0 km
Inclination: 32.3 °
Period: 99.0 minutes
Semi major axis: 7089 km
RCS: 0.777 m2 (medium)
Launch date: October 15, 1965
Source: United States (US)
Launch site: AIR FORCE EASTERN TEST RANGE (AFETR)
Your satellite tracking list
Your tracking list is empty




NASA's NSSDC Master Catalog

Two Line Element Set (TLE):
1 01641U 65082C   24325.36001044  .00000598  00000-0  13108-3 0  9995
2 01641  32.2974 328.8438 0018658 156.2604 203.8905 14.54291073133683
Source of the keplerian elements: AFSPC